When you browse on this site, cookies collect data to enhance your experience and personalize the content and advertising you see.
Visit our Privacy Policy to learn more. By continuing to use the site, you agree to this use of cookies and data.
  • In United Kingdom
  • List of Countries
  • For 7 days
  • Water Temperature
  • Satellite Maps
  • Weather Map
  • Weather Widgets
  • user-avatar
    Login

    Hourly Weather Boa Vista

    Today, 22 January, Tuesday

    Time Temperature Precipitation Wind Pressure Humidity
    00:00 +30°C° 0 mm 4 mps 754 mmHg 55%
    01:00 +30°C° 0 mm 4 mps 754 mmHg 57%
    02:00 +29°C° 0 mm 4 mps 754 mmHg 60%
    03:00 +29°C° 0 mm 4 mps 754 mmHg 61%
    04:00 +28°C° 0 mm 4 mps 754 mmHg 63%
    05:00 +28°C° 0 mm 4 mps 754 mmHg 64%
    06:00 +28°C° 0 mm 4 mps 754 mmHg 63%
    07:00 +29°C° 0 mm 5 mps 755 mmHg 62%
    08:00 +29°C° 0 mm 5 mps 755 mmHg 61%
    09:00 +32°C° 0 mm 5 mps 755 mmHg 55%
    10:00 +34°C° 0 mm 5 mps 755 mmHg 50%
    11:00 +35°C° 0 mm 5 mps 755 mmHg 44%
    12:00 +37°C° 0 mm 5 mps 754 mmHg 40%
    13:00 +39°C° 0 mm 5 mps 753 mmHg 37%
    14:00 +40°C° 0 mm 4 mps 752 mmHg 33%
    15:00 +40°C° 0 mm 4 mps 752 mmHg 33%
    16:00 +38°C° 0 mm 4 mps 751 mmHg 33%
    17:00 +38°C° 0 mm 4 mps 750 mmHg 33%
    18:00 +37°C° 0 mm 4 mps 751 mmHg 37%
    19:00 +35°C° 0 mm 4 mps 751 mmHg 41%
    20:00 +33°C° 0 mm 4 mps 752 mmHg 44%
    21:00 +33°C° 0 mm 4 mps 752 mmHg 47%
    22:00 +32°C° 0 mm 4 mps 753 mmHg 50%
    23:00 +32°C° 0 mm 4 mps 754 mmHg 53%

    Tomorrow, 23 January, Wednesday

    Time Temperature Precipitation Wind Pressure Humidity
    00:00 +30°C° 0 mm 4 mps 753 mmHg 56%
    01:00 +29°C° 0 mm 4 mps 753 mmHg 58%
    02:00 +29°C° 0 mm 4 mps 753 mmHg 61%
    03:00 +28°C° 0 mm 4 mps 753 mmHg 61%
    04:00 +28°C° 0 mm 4 mps 753 mmHg 61%
    05:00 +27°C° 0 mm 4 mps 753 mmHg 61%
    06:00 +27°C° 0 mm 4 mps 754 mmHg 61%
    07:00 +28°C° 0 mm 5 mps 755 mmHg 60%
    08:00 +28°C° 0 mm 5 mps 755 mmHg 60%
    09:00 +30°C° 0 mm 5 mps 755 mmHg 53%
    10:00 +33°C° 0 mm 5 mps 755 mmHg 46%
    11:00 +35°C° 0 mm 5 mps 755 mmHg 40%
    12:00 +36°C° 0 mm 5 mps 754 mmHg 35%
    13:00 +38°C° 0 mm 4 mps 753 mmHg 31%
    14:00 +40°C° 0 mm 4 mps 752 mmHg 27%
    15:00 +40°C° 0 mm 4 mps 751 mmHg 26%
    16:00 +40°C° 0 mm 4 mps 750 mmHg 26%
    17:00 +40°C° 0 mm 4 mps 750 mmHg 26%
    18:00 +37°C° 0 mm 4 mps 750 mmHg 29%
    19:00 +35°C° 0 mm 4 mps 751 mmHg 33%
    20:00 +34°C° 0 mm 4 mps 751 mmHg 36%
    21:00 +33°C° 0 mm 4 mps 752 mmHg 40%
    22:00 +33°C° 0 mm 4 mps 753 mmHg 43%
    23:00 +32°C° 0 mm 5 mps 753 mmHg 46%

    Day after tomorrow, 24 January, Thursday

    Time Temperature Precipitation Wind Pressure Humidity
    00:00 +30°C° 0 mm 5 mps 753 mmHg 50%
    01:00 +30°C° 0 mm 5 mps 753 mmHg 53%
    02:00 +29°C° 0 mm 4 mps 753 mmHg 56%
    03:00 +28°C° 0 mm 4 mps 753 mmHg 59%
    04:00 +28°C° 0 mm 4 mps 753 mmHg 61%
    05:00 +27°C° 0 mm 4 mps 753 mmHg 64%
    06:00 +28°C° 0 mm 4 mps 753 mmHg 62%
    07:00 +28°C° 0 mm 4 mps 754 mmHg 61%
    08:00 +29°C° 0 mm 5 mps 754 mmHg 59%
    09:00 +30°C° 0 mm 5 mps 754 mmHg 53%
    10:00 +33°C° 0 mm 4 mps 754 mmHg 47%
    11:00 +35°C° 0 mm 4 mps 754 mmHg 40%
    12:00 +36°C° 0 mm 4 mps 753 mmHg 37%
    13:00 +38°C° 0 mm 4 mps 752 mmHg 33%
    14:00 +39°C° 0 mm 3 mps 751 mmHg 29%
    15:00 +39°C° 0 mm 3 mps 750 mmHg 29%
    16:00 +39°C° 0 mm 3 mps 750 mmHg 29%
    17:00 +39°C° 0 mm 3 mps 749 mmHg 29%
    18:00 +37°C° 0 mm 4 mps 750 mmHg 33%
    19:00 +36°C° 0 mm 4 mps 751 mmHg 37%
    20:00 +35°C° 0 mm 5 mps 751 mmHg 42%
    21:00 +34°C° 0 mm 5 mps 752 mmHg 45%
    22:00 +33°C° 0 mm 5 mps 753 mmHg 47%
    23:00 +32°C° 0 mm 5 mps 753 mmHg 50%

    25 January, Friday

    Time Temperature Precipitation Wind Pressure Humidity
    00:00 +30°C° 0 mm 5 mps 753 mmHg 53%
    01:00 +30°C° 0 mm 4 mps 753 mmHg 55%
    02:00 +29°C° 0 mm 4 mps 753 mmHg 57%
    03:00 +28°C° 0 mm 4 mps 752 mmHg 58%
    04:00 +28°C° 0 mm 4 mps 752 mmHg 60%
    05:00 +28°C° 0 mm 4 mps 752 mmHg 62%
    06:00 +28°C° 0 mm 5 mps 753 mmHg 61%
    07:00 +28°C° 0 mm 5 mps 754 mmHg 61%
    08:00 +28°C° 0 mm 5 mps 754 mmHg 61%
    09:00 +30°C° 0 mm 5 mps 754 mmHg 54%
    10:00 +33°C° 0 mm 4 mps 754 mmHg 47%
    11:00 +35°C° 0 mm 4 mps 754 mmHg 39%
    12:00 +37°C° 0 mm 4 mps 753 mmHg 36%
    13:00 +38°C° 0 mm 4 mps 751 mmHg 33%
    14:00 +39°C° 0 mm 3 mps 750 mmHg 30%
    15:00 +39°C° 0 mm 3 mps 749 mmHg 29%
    16:00 +39°C° 0 mm 3 mps 749 mmHg 29%
    17:00 +39°C° 0 mm 3 mps 748 mmHg 29%
    18:00 +37°C° 0 mm 3 mps 749 mmHg 32%
    19:00 +36°C° 0 mm 3 mps 749 mmHg 36%
    20:00 +34°C° 0 mm 3 mps 750 mmHg 39%
    21:00 +33°C° 0 mm 4 mps 750 mmHg 44%
    22:00 +33°C° 0 mm 5 mps 751 mmHg 48%
    23:00 +32°C° 0 mm 5 mps 752 mmHg 52%

    26 January, Saturday

    Time Temperature Precipitation Wind Pressure Humidity
    00:00 +30°C° 0 mm 5 mps 752 mmHg 55%
    01:00 +30°C° 0 mm 5 mps 751 mmHg 57%
    02:00 +29°C° 0 mm 4 mps 751 mmHg 59%
    03:00 +28°C° 0 mm 4 mps 752 mmHg 61%
    04:00 +28°C° 0 mm 4 mps 752 mmHg 63%
    05:00 +28°C° 0 mm 4 mps 752 mmHg 65%
    06:00 +28°C° 0 mm 5 mps 753 mmHg 62%
    07:00 +28°C° 0 mm 5 mps 753 mmHg 59%
    08:00 +29°C° 0 mm 5 mps 754 mmHg 56%
    09:00 +32°C° 0 mm 5 mps 754 mmHg 50%
    10:00 +34°C° 0 mm 5 mps 754 mmHg 44%
    11:00 +36°C° 0 mm 5 mps 754 mmHg 38%
    12:00 +37°C° 0 mm 4 mps 752 mmHg 35%
    13:00 +38°C° 0 mm 4 mps 751 mmHg 33%
    14:00 +40°C° 0 mm 4 mps 750 mmHg 30%
    15:00 +39°C° 0 mm 3 mps 749 mmHg 30%
    16:00 +39°C° 0 mm 3 mps 749 mmHg 30%
    17:00 +39°C° 0 mm 3 mps 748 mmHg 30%
    18:00 +37°C° 0 mm 3 mps 749 mmHg 33%
    19:00 +35°C° 0 mm 2 mps 749 mmHg 36%
    20:00 +34°C° 0 mm 2 mps 750 mmHg 38%
    21:00 +33°C° 0 mm 3 mps 750 mmHg 40%
    22:00 +33°C° 0 mm 4 mps 751 mmHg 42%
    23:00 +32°C° 0 mm 4 mps 751 mmHg 43%

    27 January, Sunday

    Time Temperature Precipitation Wind Pressure Humidity
    00:00 +32°C° 0 mm 4 mps 751 mmHg 46%
    01:00 +30°C° 0 mm 4 mps 751 mmHg 49%
    02:00 +30°C° 0 mm 4 mps 750 mmHg 52%
    03:00 +29°C° 0 mm 4 mps 751 mmHg 55%
    04:00 +28°C° 0 mm 4 mps 751 mmHg 59%
    05:00 +28°C° 0 mm 4 mps 751 mmHg 62%
    06:00 +28°C° 0 mm 5 mps 752 mmHg 63%
    07:00 +28°C° 0 mm 5 mps 752 mmHg 64%
    08:00 +28°C° 0 mm 6 mps 753 mmHg 65%
    09:00 +30°C° 0 mm 6 mps 753 mmHg 58%
    10:00 +34°C° 0 mm 5 mps 753 mmHg 51%
    11:00 +36°C° 0 mm 5 mps 753 mmHg 44%
    12:00 +37°C° 0 mm 5 mps 752 mmHg 41%
    13:00 +38°C° 0 mm 4 mps 751 mmHg 38%
    14:00 +40°C° 0 mm 4 mps 750 mmHg 34%
    15:00 +40°C° 0 mm 4 mps 749 mmHg 34%
    16:00 +39°C° 0 mm 3 mps 748 mmHg 33%
    17:00 +39°C° 0 mm 3 mps 748 mmHg 32%
    18:00 +38°C° 0 mm 3 mps 748 mmHg 36%
    19:00 +36°C° 0 mm 3 mps 749 mmHg 40%
    20:00 +35°C° 0 mm 3 mps 750 mmHg 43%
    21:00 +34°C° 0 mm 3 mps 750 mmHg 46%
    22:00 +34°C° 0 mm 4 mps 751 mmHg 49%
    23:00 +33°C° 0 mm 4 mps 751 mmHg 52%
    Show more